Time,TemperatureF,DewpointF,PressureIn,WindDirection,WindDirectionDegrees,WindSpeedMPH,WindSpeedGustMPH,Humidity,HourlyPrecipIn,Conditions,Clouds,dailyrainin,SoftwareType,DateUTC
2013-05-29 00:00:00,69.3,52.4,30.15,ESE,114,0.0,0.0,55,0.00,,---,0.00,VWS V14.01,2013-05-29 04:00:00,
2013-05-29 00:01:00,69.3,52.4,30.15,ESE,114,0.0,0.0,55,0.00,,---,0.00,VWS V14.01,2013-05-29 04:01:00,
2013-05-29 00:06:00,69.1,52.2,30.15,ESE,114,0.0,0.0,55,0.00,,---,0.00,VWS V14.01,2013-05-29 04:06:00,
2013-05-29 00:11:00,68.9,52.1,30.15,ESE,114,0.0,0.0,55,0.00,,---,0.00,VWS V14.01,2013-05-29 04:11:00,
2013-05-29 00:16:00,68.7,51.9,30.15,ESE,114,0.0,0.0,55,0.00,,---,0.00,VWS V14.01,2013-05-29 04:16:00,
2013-05-29 00:21:00,68.7,52.4,30.15,ESE,114,0.0,0.0,56,0.00,,---,0.00,VWS V14.01,2013-05-29 04:21:00,
2013-05-29 00:26:00,68.5,52.2,30.15,ESE,114,0.0,0.0,56,0.00,,---,0.00,VWS V14.01,2013-05-29 04:26:00,
2013-05-29 00:31:00,68.5,52.2,30.15,ESE,114,0.0,0.0,56,0.00,,---,0.00,VWS V14.01,2013-05-29 04:31:00,
2013-05-29 00:36:00,68.4,52.1,30.15,ESE,114,0.0,0.0,56,0.00,,---,0.00,VWS V14.01,2013-05-29 04:36:00,
2013-05-29 00:41:00,68.2,51.9,30.15,ESE,114,0.0,0.0,56,0.00,,---,0.00,VWS V14.01,2013-05-29 04:41:00,
2013-05-29 00:46:00,68.0,51.7,30.15,ESE,114,0.0,0.0,56,0.00,,---,0.00,VWS V14.01,2013-05-29 04:46:00,
2013-05-29 00:51:00,67.8,52.0,30.15,ESE,114,0.0,0.0,57,0.00,,---,0.00,VWS V14.01,2013-05-29 04:51:00,
2013-05-29 00:56:00,67.8,52.0,30.15,ESE,114,0.0,0.0,57,0.00,,---,0.00,VWS V14.01,2013-05-29 04:56:00,
2013-05-29 01:01:00,67.6,51.9,30.12,ESE,114,0.0,0.0,57,0.00,,---,0.00,VWS V14.01,2013-05-29 05:01:00,
2013-05-29 01:06:00,67.5,52.2,30.12,ESE,114,0.0,0.0,58,0.00,,---,0.00,VWS V14.01,2013-05-29 05:06:00,
2013-05-29 01:11:00,67.5,52.2,30.12,ESE,114,0.0,0.0,58,0.00,,---,0.00,VWS V14.01,2013-05-29 05:11:00,
2013-05-29 01:16:00,67.3,52.0,30.12,ESE,114,0.0,0.0,58,0.00,,---,0.00,VWS V14.01,2013-05-29 05:16:00,
2013-05-29 01:21:00,67.3,52.0,30.12,ESE,114,0.0,0.0,58,0.00,,---,0.00,VWS V14.01,2013-05-29 05:21:00,
2013-05-29 01:26:00,67.1,51.8,30.12,ESE,114,0.0,0.0,58,0.00,,---,0.00,VWS V14.01,2013-05-29 05:26:00,
2013-05-29 01:31:00,66.9,51.7,30.12,ESE,114,0.0,0.0,58,0.00,,---,0.00,VWS V14.01,2013-05-29 05:31:00,
2013-05-29 01:36:00,66.9,52.1,30.12,ESE,114,0.0,0.0,59,0.00,,---,0.00,VWS V14.01,2013-05-29 05:36:00,
2013-05-29 01:41:00,66.7,52.0,30.12,ESE,114,0.0,0.0,59,0.00,,---,0.00,VWS V14.01,2013-05-29 05:41:00,
2013-05-29 01:46:00,66.7,52.0,30.09,ESE,114,0.0,0.0,59,0.00,,---,0.00,VWS V14.01,2013-05-29 05:46:00,
2013-05-29 01:51:00,66.6,51.8,30.09,ESE,114,0.0,0.0,59,0.00,,---,0.00,VWS V14.01,2013-05-29 05:51:00,
2013-05-29 01:56:00,66.6,51.8,30.09,ESE,114,0.0,0.0,59,0.00,,---,0.00,VWS V14.01,2013-05-29 05:56:00,
2013-05-29 02:01:00,66.4,51.6,30.12,ESE,114,0.0,0.0,59,0.00,,---,0.00,VWS V14.01,2013-05-29 06:01:00,
2013-05-29 02:06:00,66.4,52.1,30.12,ESE,114,0.0,0.0,60,0.00,,---,0.00,VWS V14.01,2013-05-29 06:06:00,
2013-05-29 02:11:00,66.2,51.9,30.12,ESE,114,0.0,0.0,60,0.00,,---,0.00,VWS V14.01,2013-05-29 06:11:00,
2013-05-29 02:16:00,66.2,51.9,30.09,ESE,114,0.0,0.0,60,0.00,,---,0.00,VWS V14.01,2013-05-29 06:16:00,
2013-05-29 02:21:00,66.0,52.2,30.09,ESE,114,0.0,0.0,61,0.00,,---,0.00,VWS V14.01,2013-05-29 06:21:00,
2013-05-29 02:26:00,66.0,52.2,30.09,ESE,114,0.0,0.0,61,0.00,,---,0.00,VWS V14.01,2013-05-29 06:26:00,
2013-05-29 02:31:00,65.8,52.0,30.09,ESE,114,0.0,0.0,61,0.00,,---,0.00,VWS V14.01,2013-05-29 06:31:00,
2013-05-29 02:36:00,65.8,52.0,30.09,ESE,114,0.0,0.0,61,0.00,,---,0.00,VWS V14.01,2013-05-29 06:36:00,
2013-05-29 02:41:00,65.8,52.0,30.09,ESE,114,0.0,0.0,61,0.00,,---,0.00,VWS V14.01,2013-05-29 06:41:00,
2013-05-29 02:46:00,65.8,52.0,30.09,ESE,114,0.0,0.0,61,0.00,,---,0.00,VWS V14.01,2013-05-29 06:46:00,
2013-05-29 02:51:00,65.7,52.3,30.09,ESE,114,0.0,0.0,62,0.00,,---,0.00,VWS V14.01,2013-05-29 06:51:00,
2013-05-29 02:56:00,65.7,52.3,30.09,ESE,114,0.0,0.0,62,0.00,,---,0.00,VWS V14.01,2013-05-29 06:56:00,
2013-05-29 03:01:00,65.5,52.1,30.09,ESE,114,0.0,0.0,62,0.00,,---,0.00,VWS V14.01,2013-05-29 07:01:00,
2013-05-29 03:06:00,65.5,52.1,30.09,ESE,114,0.0,0.0,62,0.00,,---,0.00,VWS V14.01,2013-05-29 07:06:00,
2013-05-29 03:11:00,65.5,52.1,30.09,ESE,114,0.0,0.0,62,0.00,,---,0.00,VWS V14.01,2013-05-29 07:11:00,
2013-05-29 03:16:00,65.5,52.6,30.09,ESE,114,0.0,0.0,63,0.00,,---,0.00,VWS V14.01,2013-05-29 07:16:00,
2013-05-29 03:21:00,65.3,52.4,30.09,ESE,114,0.0,0.0,63,0.00,,---,0.00,VWS V14.01,2013-05-29 07:21:00,
2013-05-29 03:26:00,65.3,52.4,30.09,ESE,114,0.0,0.0,63,0.00,,---,0.00,VWS V14.01,2013-05-29 07:26:00,
2013-05-29 03:31:00,65.1,52.2,30.09,ESE,114,0.0,0.0,63,0.00,,---,0.00,VWS V14.01,2013-05-29 07:31:00,
2013-05-29 03:36:00,65.1,52.2,30.09,ESE,114,0.0,0.0,63,0.00,,---,0.00,VWS V14.01,2013-05-29 07:36:00,
2013-05-29 03:41:00,65.1,52.2,30.09,ESE,114,0.0,0.0,63,0.00,,---,0.00,VWS V14.01,2013-05-29 07:41:00,
2013-05-29 03:46:00,65.1,52.2,30.09,ESE,114,0.0,0.0,63,0.00,,---,0.00,VWS V14.01,2013-05-29 07:46:00,
2013-05-29 03:51:00,64.9,52.1,30.09,ESE,114,0.0,0.0,63,0.00,,---,0.00,VWS V14.01,2013-05-29 07:51:00,
2013-05-29 03:56:00,64.9,52.1,30.09,ESE,114,0.0,0.0,63,0.00,,---,0.00,VWS V14.01,2013-05-29 07:56:00,
2013-05-29 04:01:00,64.9,52.1,30.09,ESE,114,0.0,0.0,63,0.00,,---,0.00,VWS V14.01,2013-05-29 08:01:00,
2013-05-29 04:06:00,64.9,52.5,30.09,ESE,114,0.0,0.0,64,0.00,,---,0.00,VWS V14.01,2013-05-29 08:06:00,
2013-05-29 04:11:00,64.8,52.3,30.09,ESE,114,0.0,0.0,64,0.00,,---,0.00,VWS V14.01,2013-05-29 08:11:00,
2013-05-29 04:16:00,64.8,52.3,30.09,ESE,114,0.0,0.0,64,0.00,,---,0.00,VWS V14.01,2013-05-29 08:16:00,
2013-05-29 04:21:00,64.8,52.3,30.09,ESE,114,0.0,0.0,64,0.00,,---,0.00,VWS V14.01,2013-05-29 08:21:00,
2013-05-29 04:26:00,64.8,52.3,30.09,ESE,114,0.0,0.0,64,0.00,,---,0.00,VWS V14.01,2013-05-29 08:26:00,
2013-05-29 04:31:00,64.8,52.3,30.09,ESE,114,0.0,0.0,64,0.00,,---,0.00,VWS V14.01,2013-05-29 08:31:00,
2013-05-29 04:36:00,64.6,52.1,30.09,ESE,114,0.0,0.0,64,0.00,,---,0.00,VWS V14.01,2013-05-29 08:36:00,
2013-05-29 04:41:00,64.6,52.1,30.09,ESE,114,0.0,0.0,64,0.00,,---,0.00,VWS V14.01,2013-05-29 08:41:00,
2013-05-29 04:46:00,64.6,52.1,30.09,ESE,114,0.0,0.0,64,0.00,,---,0.00,VWS V14.01,2013-05-29 08:46:00,
2013-05-29 04:51:00,64.4,52.0,30.09,ESE,114,0.0,0.0,64,0.00,,---,0.00,VWS V14.01,2013-05-29 08:51:00,
2013-05-29 04:56:00,64.4,52.0,30.09,ESE,114,0.0,0.0,64,0.00,,---,0.00,VWS V14.01,2013-05-29 08:56:00,
2013-05-29 05:01:00,64.4,52.4,30.09,ESE,114,0.0,0.0,65,0.00,,---,0.00,VWS V14.01,2013-05-29 09:01:00,
2013-05-29 05:06:00,64.4,52.4,30.09,ESE,114,0.0,0.0,65,0.00,,---,0.00,VWS V14.01,2013-05-29 09:06:00,
2013-05-29 05:11:00,64.4,52.4,30.09,ESE,114,0.0,0.0,65,0.00,,---,0.00,VWS V14.01,2013-05-29 09:11:00,
2013-05-29 05:16:00,64.4,52.4,30.06,ESE,114,0.0,0.0,65,0.00,,---,0.00,VWS V14.01,2013-05-29 09:16:00,
2013-05-29 05:21:00,64.4,52.4,30.06,ESE,114,0.0,0.0,65,0.00,,---,0.00,VWS V14.01,2013-05-29 09:21:00,
2013-05-29 05:26:00,64.4,52.4,30.06,ESE,114,0.0,0.0,65,0.00,,---,0.00,VWS V14.01,2013-05-29 09:26:00,
2013-05-29 05:31:00,64.4,52.4,30.09,ESE,114,0.0,0.0,65,0.00,,---,0.00,VWS V14.01,2013-05-29 09:31:00,
2013-05-29 05:36:00,64.4,52.4,30.09,ESE,114,0.0,0.0,65,0.00,,---,0.00,VWS V14.01,2013-05-29 09:36:00,
2013-05-29 05:41:00,64.4,52.4,30.09,ESE,114,0.0,0.0,65,0.00,,---,0.00,VWS V14.01,2013-05-29 09:41:00,
2013-05-29 05:46:00,64.4,52.4,30.06,ESE,114,0.0,0.0,65,0.00,,---,0.00,VWS V14.01,2013-05-29 09:46:00,
2013-05-29 05:51:00,64.4,52.8,30.06,ESE,114,0.0,0.0,66,0.00,,---,0.00,VWS V14.01,2013-05-29 09:51:00,
2013-05-29 05:56:00,64.4,52.8,30.06,ESE,114,0.0,0.0,66,0.00,,---,0.00,VWS V14.01,2013-05-29 09:56:00,
2013-05-29 06:01:00,64.4,52.8,30.09,ESE,114,0.0,0.0,66,0.00,,---,0.00,VWS V14.01,2013-05-29 10:01:00,
2013-05-29 06:06:00,64.4,52.8,30.09,ESE,114,0.0,0.0,66,0.00,,---,0.00,VWS V14.01,2013-05-29 10:06:00,
2013-05-29 06:11:00,64.6,53.0,30.09,ESE,114,0.0,0.0,66,0.00,,---,0.00,VWS V14.01,2013-05-29 10:11:00,
2013-05-29 06:16:00,64.6,53.0,30.09,ESE,114,0.0,0.0,66,0.00,,---,0.00,VWS V14.01,2013-05-29 10:16:00,
2013-05-29 06:21:00,64.8,53.2,30.09,ESE,114,0.0,0.0,66,0.00,,---,0.00,VWS V14.01,2013-05-29 10:21:00,
2013-05-29 06:26:00,64.8,53.2,30.09,ESE,114,0.0,0.0,66,0.00,,---,0.00,VWS V14.01,2013-05-29 10:26:00,
2013-05-29 06:31:00,64.9,53.7,30.09,ESE,114,0.0,0.0,67,0.00,,---,0.00,VWS V14.01,2013-05-29 10:31:00,
2013-05-29 06:36:00,65.1,53.9,30.09,ESE,114,0.0,0.0,67,0.00,,---,0.00,VWS V14.01,2013-05-29 10:36:00,
2013-05-29 06:41:00,65.3,54.1,30.09,ESE,114,0.0,0.0,67,0.00,,---,0.00,VWS V14.01,2013-05-29 10:41:00,
2013-05-29 06:46:00,65.5,54.2,30.09,ESE,114,0.0,0.0,67,0.00,,---,0.00,VWS V14.01,2013-05-29 10:46:00,
2013-05-29 06:51:00,65.7,54.8,30.09,ESE,107,0.0,0.0,68,0.00,,---,0.00,VWS V14.01,2013-05-29 10:51:00,
2013-05-29 06:56:00,65.8,55.0,30.09,ESE,107,0.0,0.0,68,0.00,,---,0.00,VWS V14.01,2013-05-29 10:56:00,
2013-05-29 07:01:00,66.0,55.2,30.09,ESE,107,0.0,0.0,68,0.00,,---,0.00,VWS V14.01,2013-05-29 11:01:00,
2013-05-29 07:06:00,66.2,55.3,30.09,ESE,105,0.0,0.0,68,0.00,,---,0.00,VWS V14.01,2013-05-29 11:06:00,
2013-05-29 07:11:00,66.6,55.7,30.09,NE,55,0.0,0.0,68,0.00,,---,0.00,VWS V14.01,2013-05-29 11:11:00,
2013-05-29 07:16:00,66.7,55.8,30.09,NE,55,0.0,0.0,68,0.00,,---,0.00,VWS V14.01,2013-05-29 11:16:00,
2013-05-29 07:21:00,67.1,56.6,30.09,NE,49,0.0,0.0,69,0.00,,---,0.00,VWS V14.01,2013-05-29 11:21:00,
2013-05-29 07:26:00,67.5,57.0,30.09,ENE,74,0.0,0.0,69,0.00,,---,0.00,VWS V14.01,2013-05-29 11:26:00,
2013-05-29 07:31:00,68.0,57.9,30.09,ENE,70,0.0,0.0,70,0.00,,---,0.00,VWS V14.01,2013-05-29 11:31:00,
2013-05-29 07:36:00,68.9,58.7,30.09,ENE,70,0.0,0.0,70,0.00,,---,0.00,VWS V14.01,2013-05-29 11:36:00,
2013-05-29 07:41:00,69.4,59.6,30.09,ENE,59,2.7,2.7,71,0.00,,---,0.00,VWS V14.01,2013-05-29 11:41:00,
2013-05-29 07:46:00,70.2,60.3,30.09,North,353,0.0,0.0,71,0.00,,---,0.00,VWS V14.01,2013-05-29 11:46:00,
2013-05-29 07:51:00,70.7,61.2,30.09,ENE,65,0.0,0.0,72,0.00,,---,0.00,VWS V14.01,2013-05-29 11:51:00,
2013-05-29 07:56:00,71.2,62.2,30.09,ENE,61,0.0,0.0,73,0.00,,---,0.00,VWS V14.01,2013-05-29 11:56:00,
2013-05-29 08:01:00,71.8,62.7,30.12,ENE,64,3.6,3.6,73,0.00,,---,0.00,VWS V14.01,2013-05-29 12:01:00,
2013-05-29 08:06:00,72.3,64.0,30.12,NE,55,0.0,0.0,75,0.00,,---,0.00,VWS V14.01,2013-05-29 12:06:00,
2013-05-29 08:11:00,72.9,64.5,30.12,East,82,0.0,0.0,75,0.00,,---,0.00,VWS V14.01,2013-05-29 12:11:00,
2013-05-29 08:16:00,73.4,64.6,30.12,ESE,123,0.0,0.0,74,0.00,,---,0.00,VWS V14.01,2013-05-29 12:16:00,
2013-05-29 08:21:00,73.9,65.5,30.12,East,100,0.0,0.0,75,0.00,,---,0.00,VWS V14.01,2013-05-29 12:21:00,
2013-05-29 08:26:00,74.7,66.6,30.12,ENE,57,4.0,4.0,76,0.00,,---,0.00,VWS V14.01,2013-05-29 12:26:00,
2013-05-29 08:31:00,75.2,66.3,30.12,ENE,59,0.0,0.0,74,0.00,,---,0.00,VWS V14.01,2013-05-29 12:31:00,
2013-05-29 08:36:00,75.7,66.1,30.12,SSE,156,0.0,4.0,72,0.00,,---,0.00,VWS V14.01,2013-05-29 12:36:00,
2013-05-29 08:41:00,76.1,66.0,30.12,North,5,2.2,2.7,71,0.00,,---,0.00,VWS V14.01,2013-05-29 12:41:00,
2013-05-29 08:46:00,76.6,65.7,30.12,ENE,60,2.2,2.2,69,0.00,,---,0.00,VWS V14.01,2013-05-29 12:46:00,
2013-05-29 08:51:00,76.8,65.0,30.12,NE,42,4.9,4.9,67,0.00,,---,0.00,VWS V14.01,2013-05-29 12:51:00,
2013-05-29 08:56:00,77.0,64.8,30.12,ENE,61,4.0,4.0,66,0.00,,---,0.00,VWS V14.01,2013-05-29 12:56:00,
2013-05-29 09:01:00,77.4,65.1,30.12,SE,146,2.7,2.7,66,0.00,,---,0.00,VWS V14.01,2013-05-29 13:01:00,
2013-05-29 09:06:00,77.5,64.0,30.12,NE,36,3.1,3.1,63,0.00,,---,0.00,VWS V14.01,2013-05-29 13:06:00,
2013-05-29 09:11:00,78.3,65.5,30.12,ENE,67,0.0,0.0,65,0.00,,---,0.00,VWS V14.01,2013-05-29 13:11:00,
2013-05-29 09:16:00,78.3,64.2,30.12,ENE,60,4.0,6.3,62,0.00,,---,0.00,VWS V14.01,2013-05-29 13:16:00,
2013-05-29 09:21:00,78.8,63.8,30.12,NE,47,8.3,8.3,60,0.00,,---,0.00,VWS V14.01,2013-05-29 13:21:00,
2013-05-29 09:26:00,79.2,63.1,30.12,ENE,72,4.9,4.9,58,0.00,,---,0.00,VWS V14.01,2013-05-29 13:26:00,
2013-05-29 09:31:00,79.9,63.3,30.12,North,3,5.4,5.4,57,0.00,,---,0.00,VWS V14.01,2013-05-29 13:31:00,
2013-05-29 09:36:00,79.9,60.7,30.12,ENE,77,4.9,6.3,52,0.00,,---,0.00,VWS V14.01,2013-05-29 13:36:00,
2013-05-29 09:41:00,80.2,60.5,30.12,ENE,71,3.1,3.1,51,0.00,,---,0.00,VWS V14.01,2013-05-29 13:41:00,
2013-05-29 09:46:00,80.6,60.3,30.12,East,99,3.1,3.6,50,0.00,,---,0.00,VWS V14.01,2013-05-29 13:46:00,
2013-05-29 09:51:00,80.8,60.4,30.12,SSW,192,0.0,0.0,50,0.00,,---,0.00,VWS V14.01,2013-05-29 13:51:00,
2013-05-29 09:56:00,81.0,60.0,30.12,West,263,2.7,6.3,49,0.00,,---,0.00,VWS V14.01,2013-05-29 13:56:00,
2013-05-29 10:01:00,81.7,60.1,30.12,ENE,71,6.7,6.7,48,0.00,,---,0.00,VWS V14.01,2013-05-29 14:01:00,
2013-05-29 10:06:00,82.0,61.0,30.12,NW,324,3.6,4.0,49,0.00,,---,0.00,VWS V14.01,2013-05-29 14:06:00,
2013-05-29 10:11:00,82.2,60.6,30.12,South,183,3.6,3.6,48,0.00,,---,0.00,VWS V14.01,2013-05-29 14:11:00,
2013-05-29 10:16:00,82.4,60.8,30.12,SE,145,4.0,5.4,48,0.00,,---,0.00,VWS V14.01,2013-05-29 14:16:00,
2013-05-29 10:21:00,82.6,57.8,30.12,East,83,2.2,3.1,43,0.00,,---,0.00,VWS V14.01,2013-05-29 14:21:00,
2013-05-29 10:26:00,83.1,58.3,30.12,NNE,18,0.0,0.0,43,0.00,,---,0.00,VWS V14.01,2013-05-29 14:26:00,
2013-05-29 10:31:00,83.3,57.8,30.12,SE,143,7.6,7.6,42,0.00,,---,0.00,VWS V14.01,2013-05-29 14:31:00,
2013-05-29 10:36:00,83.8,59.0,30.12,ESE,120,5.8,5.8,43,0.00,,---,0.00,VWS V14.01,2013-05-29 14:36:00,
2013-05-29 10:41:00,83.8,57.7,30.12,NE,50,4.9,4.9,41,0.00,,---,0.00,VWS V14.01,2013-05-29 14:41:00,
2013-05-29 10:46:00,83.7,57.5,30.12,NE,52,4.9,4.9,41,0.00,,---,0.00,VWS V14.01,2013-05-29 14:46:00,
2013-05-29 10:51:00,83.1,57.0,30.12,NNW,331,3.6,3.6,41,0.00,,---,0.00,VWS V14.01,2013-05-29 14:51:00,
2013-05-29 10:56:00,83.1,57.0,30.12,NNE,24,3.1,3.6,41,0.00,,---,0.00,VWS V14.01,2013-05-29 14:56:00,
2013-05-29 11:01:00,83.1,57.0,30.12,NE,54,3.1,3.1,41,0.00,,---,0.00,VWS V14.01,2013-05-29 15:01:00,
2013-05-29 11:06:00,82.8,56.7,30.12,ENE,60,3.1,3.1,41,0.00,,---,0.00,VWS V14.01,2013-05-29 15:06:00,
2013-05-29 11:11:00,83.3,57.2,30.12,NE,46,5.8,5.8,41,0.00,,---,0.00,VWS V14.01,2013-05-29 15:11:00,
2013-05-29 11:16:00,84.0,57.8,30.12,NE,50,3.6,4.9,41,0.00,,---,0.00,VWS V14.01,2013-05-29 15:16:00,
2013-05-29 11:21:00,84.6,57.6,30.12,NE,48,5.8,5.8,40,0.00,,---,0.00,VWS V14.01,2013-05-29 15:21:00,
2013-05-29 11:26:00,84.7,57.8,30.12,WNW,294,0.0,2.2,40,0.00,,---,0.00,VWS V14.01,2013-05-29 15:26:00,
2013-05-29 11:31:00,84.9,57.9,30.12,SE,136,0.0,0.0,40,0.00,,---,0.00,VWS V14.01,2013-05-29 15:31:00,
2013-05-29 11:36:00,84.6,56.9,30.12,East,88,4.0,4.9,39,0.00,,---,0.00,VWS V14.01,2013-05-29 15:36:00,
2013-05-29 11:41:00,84.4,56.7,30.12,South,185,2.7,2.7,39,0.00,,---,0.00,VWS V14.01,2013-05-29 15:41:00,
2013-05-29 11:46:00,84.6,57.6,30.12,ENE,59,3.1,3.1,40,0.00,,---,0.00,VWS V14.01,2013-05-29 15:46:00,
2013-05-29 11:51:00,84.7,57.1,30.12,ESE,106,4.0,4.0,39,0.00,,---,0.00,VWS V14.01,2013-05-29 15:51:00,
2013-05-29 11:56:00,85.1,58.1,30.12,NE,34,3.1,3.1,40,0.00,,---,0.00,VWS V14.01,2013-05-29 15:56:00,
2013-05-29 12:01:00,85.8,58.7,30.12,ENE,73,3.6,3.6,40,0.00,,---,0.00,VWS V14.01,2013-05-29 16:01:00,
2013-05-29 12:06:00,86.5,58.7,30.12,East,92,6.3,6.3,39,0.00,,---,0.00,VWS V14.01,2013-05-29 16:06:00,
2013-05-29 12:11:00,86.7,58.1,30.12,ENE,73,5.4,5.4,38,0.00,,---,0.00,VWS V14.01,2013-05-29 16:11:00,
2013-05-29 12:16:00,86.7,58.1,30.12,NE,46,5.8,5.8,38,0.00,,---,0.00,VWS V14.01,2013-05-29 16:16:00,
2013-05-29 12:21:00,86.9,58.3,30.12,ENE,71,5.4,5.4,38,0.00,,---,0.00,VWS V14.01,2013-05-29 16:21:00,
2013-05-29 12:26:00,87.3,58.6,30.12,South,170,2.7,2.7,38,0.00,,---,0.00,VWS V14.01,2013-05-29 16:26:00,
2013-05-29 12:31:00,88.0,59.2,30.12,NE,43,2.7,3.6,38,0.00,,---,0.00,VWS V14.01,2013-05-29 16:31:00,
2013-05-29 12:36:00,88.2,59.4,30.12,East,83,2.7,2.7,38,0.00,,---,0.00,VWS V14.01,2013-05-29 16:36:00,
2013-05-29 12:41:00,88.0,59.2,30.12,ENE,69,4.9,4.9,38,0.00,,---,0.00,VWS V14.01,2013-05-29 16:41:00,
2013-05-29 12:46:00,88.2,59.4,30.12,ENE,75,3.1,3.1,38,0.00,,---,0.00,VWS V14.01,2013-05-29 16:46:00,
2013-05-29 12:51:00,88.3,59.5,30.12,NE,39,2.7,3.6,38,0.00,,---,0.00,VWS V14.01,2013-05-29 16:51:00,
2013-05-29 12:56:00,88.0,59.2,30.12,ENE,65,2.7,2.7,38,0.00,,---,0.00,VWS V14.01,2013-05-29 16:56:00,
2013-05-29 13:01:00,88.0,59.2,30.12,SSW,193,2.2,2.2,38,0.00,,---,0.00,VWS V14.01,2013-05-29 17:01:00,
2013-05-29 13:06:00,88.2,59.4,30.12,NNE,32,5.4,5.4,38,0.00,,---,0.00,VWS V14.01,2013-05-29 17:06:00,
2013-05-29 13:11:00,88.2,59.4,30.12,South,172,4.0,4.0,38,0.00,,---,0.00,VWS V14.01,2013-05-29 17:11:00,
2013-05-29 13:16:00,88.2,59.4,30.12,NE,52,3.1,8.1,38,0.00,,---,0.00,VWS V14.01,2013-05-29 17:16:00,
2013-05-29 13:21:00,88.2,59.4,30.12,NE,40,5.4,5.4,38,0.00,,---,0.00,VWS V14.01,2013-05-29 17:21:00,
2013-05-29 13:26:00,88.0,56.9,30.12,NE,42,4.0,10.1,35,0.00,,---,0.00,VWS V14.01,2013-05-29 17:26:00,
2013-05-29 13:31:00,88.0,59.2,30.12,South,185,0.0,4.0,38,0.00,,---,0.00,VWS V14.01,2013-05-29 17:31:00,
2013-05-29 13:36:00,88.3,57.2,30.12,NE,52,4.0,4.0,35,0.00,,---,0.00,VWS V14.01,2013-05-29 17:36:00,
2013-05-29 13:41:00,88.7,57.6,30.12,NNE,12,3.6,8.7,35,0.00,,---,0.00,VWS V14.01,2013-05-29 17:41:00,
2013-05-29 13:46:00,89.2,58.0,30.12,NE,55,5.4,6.3,35,0.00,,---,0.00,VWS V14.01,2013-05-29 17:46:00,
2013-05-29 13:51:00,89.6,58.3,30.12,North,0,3.1,4.0,35,0.00,,---,0.00,VWS V14.01,2013-05-29 17:51:00,
2013-05-29 13:56:00,90.0,58.7,30.12,East,85,3.1,8.3,35,0.00,,---,0.00,VWS V14.01,2013-05-29 17:56:00,
2013-05-29 14:01:00,89.8,58.5,30.12,ESE,113,0.0,3.6,35,0.00,,---,0.00,VWS V14.01,2013-05-29 18:01:00,
2013-05-29 14:06:00,89.6,58.3,30.12,East,96,4.0,4.0,35,0.00,,---,0.00,VWS V14.01,2013-05-29 18:06:00,
2013-05-29 14:11:00,89.2,58.0,30.12,NNE,31,3.1,4.0,35,0.00,,---,0.00,VWS V14.01,2013-05-29 18:11:00,
2013-05-29 14:16:00,88.9,57.7,30.12,NE,48,5.8,5.8,35,0.00,,---,0.00,VWS V14.01,2013-05-29 18:16:00,
2013-05-29 14:21:00,88.2,57.1,30.12,ENE,66,4.0,4.0,35,0.00,,---,0.00,VWS V14.01,2013-05-29 18:21:00,
2013-05-29 14:26:00,88.0,56.9,30.12,SSE,162,4.0,5.8,35,0.00,,---,0.00,VWS V14.01,2013-05-29 18:26:00,
2013-05-29 14:31:00,88.5,57.4,30.12,NE,51,7.2,7.2,35,0.00,,---,0.00,VWS V14.01,2013-05-29 18:31:00,
2013-05-29 14:36:00,88.9,57.7,30.12,ENE,65,5.4,6.7,35,0.00,,---,0.00,VWS V14.01,2013-05-29 18:36:00,
2013-05-29 14:41:00,88.5,57.4,30.12,SW,217,2.2,4.9,35,0.00,,---,0.00,VWS V14.01,2013-05-29 18:41:00,
2013-05-29 14:46:00,88.3,57.2,30.12,NE,42,8.7,8.7,35,0.00,,---,0.00,VWS V14.01,2013-05-29 18:46:00,
2013-05-29 14:51:00,88.0,56.9,30.12,NNE,21,3.1,6.3,35,0.00,,---,0.00,VWS V14.01,2013-05-29 18:51:00,
2013-05-29 14:56:00,88.0,56.9,30.12,SSW,210,2.7,2.7,35,0.00,,---,0.00,VWS V14.01,2013-05-29 18:56:00,
2013-05-29 15:01:00,88.0,56.9,30.12,NE,51,3.1,4.9,35,0.00,,---,0.00,VWS V14.01,2013-05-29 19:01:00,
2013-05-29 15:06:00,88.2,57.1,30.12,NE,40,3.6,4.0,35,0.00,,---,0.00,VWS V14.01,2013-05-29 19:06:00,
2013-05-29 15:11:00,87.8,56.8,30.12,ENE,73,3.1,5.4,35,0.00,,---,0.00,VWS V14.01,2013-05-29 19:11:00,
2013-05-29 15:16:00,87.6,57.4,30.09,NE,37,3.6,4.9,36,0.00,,---,0.00,VWS V14.01,2013-05-29 19:16:00,
2013-05-29 15:21:00,87.4,57.2,30.09,East,86,4.9,7.2,36,0.00,,---,0.00,VWS V14.01,2013-05-29 19:21:00,
2013-05-29 15:26:00,87.1,56.9,30.09,SE,140,4.9,7.6,36,0.00,,---,0.00,VWS V14.01,2013-05-29 19:26:00,
2013-05-29 15:31:00,87.3,57.1,30.09,NE,45,6.3,6.3,36,0.00,,---,0.00,VWS V14.01,2013-05-29 19:31:00,
2013-05-29 15:36:00,87.8,56.8,30.09,East,81,3.6,5.4,35,0.00,,---,0.00,VWS V14.01,2013-05-29 19:36:00,
2013-05-29 15:41:00,88.2,57.1,30.09,ENE,63,10.1,10.1,35,0.00,,---,0.00,VWS V14.01,2013-05-29 19:41:00,
2013-05-29 15:46:00,87.8,56.8,30.09,NE,39,3.6,7.2,35,0.00,,---,0.00,VWS V14.01,2013-05-29 19:46:00,
2013-05-29 15:51:00,87.4,57.2,30.09,SE,131,3.1,8.3,36,0.00,,---,0.00,VWS V14.01,2013-05-29 19:51:00,
2013-05-29 15:56:00,87.1,56.9,30.09,NE,46,2.7,3.1,36,0.00,,---,0.00,VWS V14.01,2013-05-29 19:56:00,
2013-05-29 16:00:00,87.1,56.9,30.09,South,178,4.0,8.7,36,0.00,,---,0.00,VWS V14.01,2013-05-29 20:00:00,
2013-05-29 16:06:00,87.4,57.2,30.09,NE,39,3.1,8.1,36,0.00,,---,0.00,VWS V14.01,2013-05-29 20:06:00,
2013-05-29 16:11:00,87.8,56.8,30.09,SE,140,3.1,7.6,35,0.00,,---,0.00,VWS V14.01,2013-05-29 20:11:00,
2013-05-29 16:16:00,87.6,57.4,30.09,ENE,68,7.2,9.2,36,0.00,,---,0.00,VWS V14.01,2013-05-29 20:16:00,
2013-05-29 16:21:00,87.8,56.8,30.09,ENE,71,3.1,9.6,35,0.00,,---,0.00,VWS V14.01,2013-05-29 20:21:00,
2013-05-29 16:26:00,87.4,57.2,30.09,NE,42,3.1,4.0,36,0.00,,---,0.00,VWS V14.01,2013-05-29 20:26:00,
2013-05-29 16:31:00,86.9,56.8,30.09,NNE,24,4.0,4.9,36,0.00,,---,0.00,VWS V14.01,2013-05-29 20:31:00,
2013-05-29 16:36:00,86.0,56.0,30.09,East,86,2.2,3.6,36,0.00,,---,0.00,VWS V14.01,2013-05-29 20:36:00,
2013-05-29 16:41:00,85.5,55.5,30.09,East,86,2.7,7.6,36,0.00,,---,0.00,VWS V14.01,2013-05-29 20:41:00,
2013-05-29 16:46:00,85.6,57.1,30.09,ESE,115,3.1,4.9,38,0.00,,---,0.00,VWS V14.01,2013-05-29 20:46:00,
2013-05-29 16:51:00,86.0,57.5,30.09,ESE,102,2.7,6.3,38,0.00,,---,0.00,VWS V14.01,2013-05-29 20:51:00,
2013-05-29 16:56:00,86.4,57.8,30.09,NE,36,5.4,6.3,38,0.00,,---,0.00,VWS V14.01,2013-05-29 20:56:00,
2013-05-29 17:01:00,86.7,56.6,30.09,WSW,256,0.0,4.0,36,0.00,,---,0.00,VWS V14.01,2013-05-29 21:01:00,
2013-05-29 17:06:00,87.1,56.9,30.09,SSE,154,2.2,5.8,36,0.00,,---,0.00,VWS V14.01,2013-05-29 21:06:00,
2013-05-29 17:11:00,87.1,56.9,30.09,NE,48,3.6,11.0,36,0.00,,---,0.00,VWS V14.01,2013-05-29 21:11:00,
2013-05-29 17:16:00,87.1,56.9,30.09,East,99,5.4,5.4,36,0.00,,---,0.00,VWS V14.01,2013-05-29 21:16:00,
2013-05-29 17:21:00,87.1,56.9,30.09,East,90,4.0,8.3,36,0.00,,---,0.00,VWS V14.01,2013-05-29 21:21:00,
2013-05-29 17:26:00,87.1,56.9,30.09,ENE,57,3.1,3.1,36,0.00,,---,0.00,VWS V14.01,2013-05-29 21:26:00,
2013-05-29 17:31:00,87.1,56.9,30.09,SE,124,3.1,6.3,36,0.00,,---,0.00,VWS V14.01,2013-05-29 21:31:00,
2013-05-29 17:36:00,87.1,56.9,30.09,East,84,3.1,5.8,36,0.00,,---,0.00,VWS V14.01,2013-05-29 21:36:00,
2013-05-29 17:41:00,86.7,56.6,30.09,ENE,59,0.0,4.0,36,0.00,,---,0.00,VWS V14.01,2013-05-29 21:41:00,
2013-05-29 17:46:00,86.4,56.3,30.09,NNE,26,4.0,6.3,36,0.00,,---,0.00,VWS V14.01,2013-05-29 21:46:00,
2013-05-29 17:51:00,86.5,56.4,30.09,NW,317,0.0,0.0,36,0.00,,---,0.00,VWS V14.01,2013-05-29 21:51:00,
2013-05-29 17:56:00,86.5,56.4,30.09,SSW,213,0.0,0.0,36,0.00,,---,0.00,VWS V14.01,2013-05-29 21:56:00,
2013-05-29 18:01:00,86.2,56.1,30.09,SSW,193,2.2,6.3,36,0.00,,---,0.00,VWS V14.01,2013-05-29 22:01:00,
2013-05-29 18:06:00,85.6,55.7,30.09,NNE,31,3.6,4.0,36,0.00,,---,0.00,VWS V14.01,2013-05-29 22:06:00,
2013-05-29 18:11:00,85.5,55.5,30.09,ENE,65,3.6,9.2,36,0.00,,---,0.00,VWS V14.01,2013-05-29 22:11:00,
2013-05-29 18:16:00,85.3,55.3,30.09,NE,51,2.7,4.9,36,0.00,,---,0.00,VWS V14.01,2013-05-29 22:16:00,
2013-05-29 18:21:00,85.3,55.3,30.09,South,187,2.2,5.8,36,0.00,,---,0.00,VWS V14.01,2013-05-29 22:21:00,
2013-05-29 18:26:00,85.1,55.2,30.09,SSW,203,4.9,5.8,36,0.00,,---,0.00,VWS V14.01,2013-05-29 22:26:00,
2013-05-29 18:31:00,84.7,54.9,30.09,East,85,3.6,5.4,36,0.00,,---,0.00,VWS V14.01,2013-05-29 22:31:00,
2013-05-29 18:36:00,84.6,56.2,30.09,East,90,7.6,7.6,38,0.00,,---,0.00,VWS V14.01,2013-05-29 22:36:00,
2013-05-29 18:41:00,84.4,56.0,30.09,NE,55,0.0,8.1,38,0.00,,---,0.00,VWS V14.01,2013-05-29 22:41:00,
2013-05-29 18:46:00,84.2,55.9,30.09,East,79,7.6,7.6,38,0.00,,---,0.00,VWS V14.01,2013-05-29 22:46:00,
2013-05-29 18:51:00,83.8,56.3,30.09,East,86,0.0,3.6,39,0.00,,---,0.00,VWS V14.01,2013-05-29 22:51:00,
2013-05-29 18:56:00,83.7,56.1,30.09,NE,43,5.4,8.1,39,0.00,,---,0.00,VWS V14.01,2013-05-29 22:56:00,
2013-05-29 19:01:00,83.3,55.8,30.09,ENE,62,2.7,4.9,39,0.00,,---,0.00,VWS V14.01,2013-05-29 23:01:00,
2013-05-29 19:06:00,82.9,55.5,30.09,NNE,22,2.7,6.3,39,0.00,,---,0.00,VWS V14.01,2013-05-29 23:06:00,
2013-05-29 19:11:00,82.8,55.3,30.09,NE,34,3.6,4.9,39,0.00,,---,0.00,VWS V14.01,2013-05-29 23:11:00,
2013-05-29 19:16:00,82.4,55.0,30.12,ENE,63,4.0,6.3,39,0.00,,---,0.00,VWS V14.01,2013-05-29 23:16:00,
2013-05-29 19:21:00,82.0,55.4,30.12,ESE,103,2.7,3.6,40,0.00,,---,0.00,VWS V14.01,2013-05-29 23:21:00,
2013-05-29 19:26:00,81.7,55.0,30.12,SW,214,3.6,3.6,40,0.00,,---,0.00,VWS V14.01,2013-05-29 23:26:00,
2013-05-29 19:31:00,81.5,54.9,30.12,ENE,69,0.0,3.1,40,0.00,,---,0.00,VWS V14.01,2013-05-29 23:31:00,
2013-05-29 19:36:00,81.5,54.9,30.12,ENE,65,5.8,5.8,40,0.00,,---,0.00,VWS V14.01,2013-05-29 23:36:00,
2013-05-29 19:41:00,81.1,54.5,30.12,NE,42,5.8,6.3,40,0.00,,---,0.00,VWS V14.01,2013-05-29 23:41:00,
2013-05-29 19:46:00,80.8,54.2,30.12,ESE,102,4.0,7.2,40,0.00,,---,0.00,VWS V14.01,2013-05-29 23:46:00,
2013-05-29 19:51:00,80.6,54.1,30.12,NNW,342,2.2,3.1,40,0.00,,---,0.00,VWS V14.01,2013-05-29 23:51:00,
2013-05-29 19:56:00,80.4,53.9,30.12,NE,46,7.6,7.6,40,0.00,,---,0.00,VWS V14.01,2013-05-29 23:56:00,
2013-05-29 20:01:00,80.2,54.4,30.12,ENE,74,5.8,6.7,41,0.00,,---,0.00,VWS V14.01,2013-05-30 00:01:00,
2013-05-29 20:06:00,79.9,54.1,30.12,ENE,74,5.8,5.8,41,0.00,,---,0.00,VWS V14.01,2013-05-30 00:06:00,
2013-05-29 20:11:00,79.7,53.9,30.12,East,79,0.0,0.0,41,0.00,,---,0.00,VWS V14.01,2013-05-30 00:11:00,
2013-05-29 20:16:00,79.3,53.6,30.12,NE,49,2.7,4.0,41,0.00,,---,0.00,VWS V14.01,2013-05-30 00:16:00,
2013-05-29 20:21:00,79.2,53.5,30.12,ENE,61,3.1,4.0,41,0.00,,---,0.00,VWS V14.01,2013-05-30 00:21:00,
2013-05-29 20:26:00,79.0,54.0,30.12,ENE,63,3.1,7.6,42,0.00,,---,0.00,VWS V14.01,2013-05-30 00:26:00,
2013-05-29 20:31:00,79.0,54.6,30.12,NNE,29,0.0,0.0,43,0.00,,---,0.00,VWS V14.01,2013-05-30 00:31:00,
2013-05-29 20:36:00,78.6,54.3,30.12,NNE,14,0.0,6.3,43,0.00,,---,0.00,VWS V14.01,2013-05-30 00:36:00,
2013-05-29 20:41:00,78.4,54.1,30.12,NE,51,2.2,3.1,43,0.00,,---,0.00,VWS V14.01,2013-05-30 00:41:00,
2013-05-29 20:46:00,78.4,54.7,30.12,North,357,3.6,3.6,44,0.00,,---,0.00,VWS V14.01,2013-05-30 00:46:00,
2013-05-29 20:51:00,78.1,54.4,30.12,North,8,3.1,3.1,44,0.00,,---,0.00,VWS V14.01,2013-05-30 00:51:00,
2013-05-29 20:56:00,78.1,55.0,30.12,ENE,71,3.1,3.6,45,0.00,,---,0.00,VWS V14.01,2013-05-30 00:56:00,
2013-05-29 21:01:00,77.9,55.5,30.12,NNE,28,3.6,3.6,46,0.00,,---,0.00,VWS V14.01,2013-05-30 01:01:00,
2013-05-29 21:06:00,77.7,55.3,30.12,NE,48,3.1,3.1,46,0.00,,---,0.00,VWS V14.01,2013-05-30 01:06:00,
2013-05-29 21:11:00,77.5,55.2,30.12,ENE,78,0.0,0.0,46,0.00,,---,0.00,VWS V14.01,2013-05-30 01:11:00,
2013-05-29 21:16:00,77.4,55.0,30.12,NE,49,0.0,0.0,46,0.00,,---,0.00,VWS V14.01,2013-05-30 01:16:00,
2013-05-29 21:21:00,77.2,56.0,30.12,ENE,75,0.0,3.6,48,0.00,,---,0.00,VWS V14.01,2013-05-30 01:21:00,
2013-05-29 21:26:00,77.0,55.8,30.12,NE,51,0.0,0.0,48,0.00,,---,0.00,VWS V14.01,2013-05-30 01:26:00,
2013-05-29 21:31:00,76.8,56.2,30.12,ENE,63,0.0,0.0,49,0.00,,---,0.00,VWS V14.01,2013-05-30 01:31:00,
2013-05-29 21:36:00,76.6,56.6,30.12,ENE,61,0.0,0.0,50,0.00,,---,0.00,VWS V14.01,2013-05-30 01:36:00,
2013-05-29 21:40:00,76.6,56.6,30.12,ENE,62,0.0,0.0,50,0.00,,---,0.00,VWS V14.01,2013-05-30 01:40:00,
2013-05-29 21:46:00,76.5,56.5,30.12,ENE,57,0.0,0.0,50,0.00,,---,0.00,VWS V14.01,2013-05-30 01:46:00,
2013-05-29 21:50:00,76.3,56.8,30.12,ENE,68,0.0,0.0,51,0.00,,---,0.00,VWS V14.01,2013-05-30 01:50:00,
2013-05-29 21:55:00,76.1,56.7,30.12,ENE,59,0.0,0.0,51,0.00,,---,0.00,VWS V14.01,2013-05-30 01:55:00,
2013-05-29 22:00:00,75.9,57.0,30.12,NE,41,0.0,0.0,52,0.00,,---,0.00,VWS V14.01,2013-05-30 02:00:00,
2013-05-29 22:05:00,75.7,56.3,30.12,NE,42,0.0,0.0,51,0.00,,---,0.00,VWS V14.01,2013-05-30 02:05:00,
2013-05-29 22:10:00,75.7,56.9,30.12,ESE,102,3.1,3.1,52,0.00,,---,0.00,VWS V14.01,2013-05-30 02:10:00,
2013-05-29 22:15:00,75.7,57.4,30.15,ENE,60,5.4,6.3,53,0.00,,---,0.00,VWS V14.01,2013-05-30 02:15:00,
2013-05-29 22:20:00,75.7,56.9,30.15,ENE,63,0.0,0.0,52,0.00,,---,0.00,VWS V14.01,2013-05-30 02:20:00,
2013-05-29 22:25:00,75.6,56.7,30.15,East,101,0.0,0.0,52,0.00,,---,0.00,VWS V14.01,2013-05-30 02:25:00,
2013-05-29 22:30:00,75.4,56.5,30.15,NE,53,0.0,0.0,52,0.00,,---,0.00,VWS V14.01,2013-05-30 02:30:00,
2013-05-29 22:35:00,75.4,56.5,30.15,ESE,115,0.0,0.0,52,0.00,,---,0.00,VWS V14.01,2013-05-30 02:35:00,
2013-05-29 22:40:00,75.2,56.4,30.15,ESE,115,0.0,0.0,52,0.00,,---,0.00,VWS V14.01,2013-05-30 02:40:00,
2013-05-29 22:45:00,75.0,56.8,30.15,ESE,108,0.0,0.0,53,0.00,,---,0.00,VWS V14.01,2013-05-30 02:45:00,
2013-05-29 22:50:00,74.8,56.6,30.15,ESE,109,0.0,0.0,53,0.00,,---,0.00,VWS V14.01,2013-05-30 02:50:00,
2013-05-29 22:55:00,74.7,56.4,30.15,ESE,109,0.0,0.0,53,0.00,,---,0.00,VWS V14.01,2013-05-30 02:55:00,
2013-05-29 23:00:00,74.5,56.2,30.15,East,82,0.0,0.0,53,0.00,,---,0.00,VWS V14.01,2013-05-30 03:00:00,
2013-05-29 23:05:00,74.3,56.1,30.15,East,82,0.0,0.0,53,0.00,,---,0.00,VWS V14.01,2013-05-30 03:05:00,
2013-05-29 23:10:00,74.1,55.9,30.15,East,82,0.0,0.0,53,0.00,,---,0.00,VWS V14.01,2013-05-30 03:10:00,
2013-05-29 23:15:00,73.9,56.3,30.15,East,79,0.0,0.0,54,0.00,,---,0.00,VWS V14.01,2013-05-30 03:15:00,
2013-05-29 23:20:00,73.9,56.3,30.15,ENE,78,0.0,0.0,54,0.00,,---,0.00,VWS V14.01,2013-05-30 03:20:00,
2013-05-29 23:25:00,73.8,56.1,30.15,ENE,78,0.0,0.0,54,0.00,,---,0.00,VWS V14.01,2013-05-30 03:25:00,
2013-05-29 23:30:00,73.6,55.9,30.15,ENE,78,0.0,0.0,54,0.00,,---,0.00,VWS V14.01,2013-05-30 03:30:00,
2013-05-29 23:35:00,73.6,56.4,30.15,NE,38,0.0,0.0,55,0.00,,---,0.00,VWS V14.01,2013-05-30 03:35:00,
2013-05-29 23:40:00,73.4,56.3,30.15,ENE,60,0.0,0.0,55,0.00,,---,0.00,VWS V14.01,2013-05-30 03:40:00,
2013-05-29 23:45:00,73.4,56.3,30.12,ENE,60,0.0,0.0,55,0.00,,---,0.00,VWS V14.01,2013-05-30 03:45:00,
2013-05-29 23:50:00,73.4,56.8,30.12,ENE,60,0.0,0.0,56,0.00,,---,0.00,VWS V14.01,2013-05-30 03:50:00,
2013-05-29 23:55:00,73.2,56.6,30.12,ENE,60,0.0,0.0,56,0.00,,---,0.00,VWS V14.01,2013-05-30 03:55:00,